This demonstration page uses our WeatherBlox Daily Observations layout. Learn more.

Left ArrowRight Arrow

40.92945, -100.16068

Hourly Observations for February 10, 2023

Temp ( °F °C ) Dew Point ( °F °C ) Humidity (%) Winds ( mph kmh ) Pressure ( in mb ) Visibility ( mi km ) Precip ( " mm )
12:15 am 00:15 Partly Cloudy 18 -8 14 -9.8 87 87 WNW 10 17 30.66 1038 10 16 0.00 0.00
12:35 am 00:35 Clear 18 -8 14 -10 85 85 WNW 10 17 30.66 1038 10 16 0.00 0.00
12:55 am 00:55 Clear 16 -8.8 13 -10.6 87 87 NW 9 15 30.67 1039 10 16 0.00 0.00
1:15 am 01:15 Clear 16 -8.7 13 -10.4 87 87 WNW 8 13 30.66 1038 10 16 0.00 0.00
1:35 am 01:35 Clear 16 -9 13 -10.5 89 89 WNW 9 15 30.66 1038 10 16 0.00 0.00
1:55 am 01:55 Clear 15 -9.2 13 -10.7 89 89 WNW 9 15 30.66 1038 10 16 0.00 0.00
2:15 am 02:15 Clear 14 -10 11 -11.7 87 87 NW 9 15 30.66 1038 10 16 0.00 0.00
2:35 am 02:35 Clear 14 -10 11 -11.6 88 88 NW 9 15 30.66 1038 10 16 0.00 0.00
2:55 am 02:55 Clear 15 -9.4 12 -11.1 87 87 NW 10 17 30.66 1038 10 16 0.00 0.00
3:15 am 03:15 Clear 14 -9.9 11 -11.6 87 87 NW 9 15 30.66 1038 10 16 0.00 0.00
3:35 am 03:35 Clear 13 -10.4 10 -12.2 87 87 NW 8 13 30.66 1038 10 16 0.00 0.00
3:55 am 03:55 Clear 13 -10.5 10 -12.2 87 87 NW 8 13 30.66 1038 10 16 0.00 0.00
4:15 am 04:15 Clear 12 -11 9 -12.6 88 88 WNW 9 15 30.66 1038 10 16 0.00 0.00
4:35 am 04:35 Clear 12 -11.3 8 -13.2 86 86 WNW 10 17 30.67 1038 10 16 0.00 0.00
4:55 am 04:55 Clear 11 -11.7 8 -13.4 87 87 WNW 12 19 30.67 1039 10 16 0.00 0.00
5:15 am 05:15 Clear 12 -11 9 -12.8 86 86 WNW 12 19 30.66 1038 10 16 0.00 0.00
5:35 am 05:35 Clear 12 -11.3 8 -13.1 86 86 WNW 10 17 30.67 1038 10 16 0.00 0.00
5:55 am 05:55 Clear 11 -11.4 8 -13.2 86 86 WNW 9 15 30.67 1039 10 16 0.00 0.00
6:15 am 06:15 Clear 12 -11.3 8 -13.1 86 86 WNW 9 15 30.67 1038 10 16 0.00 0.00
6:35 am 06:35 Clear 12 -11 9 -12.9 86 86 WNW 10 17 30.66 1038 10 16 0.00 0.00
6:55 am 06:55 Clear 12 -11.3 8 -13.2 86 86 WNW 10 17 30.67 1038 10 16 0.00 0.00
7:15 am 07:15 Clear 10 -12.1 7 -14 86 86 WNW 9 15 30.68 1039 10 16 0.00 0.00
7:35 am 07:35 Clear 10 -12.2 7 -14 86 86 WNW 9 15 30.68 1039 10 16 0.00 0.00
7:55 am 07:55 Sunny 9 -12.6 6 -14.5 86 86 WNW 8 13 30.68 1039 10 16 0.00 0.00
8:15 am 08:15 Sunny 9 -13 5 -14.8 86 86 NW 6 9 30.70 1040 10 16 0.00 0.00
8:35 am 08:35 Sunny 11 -11.9 7 -13.9 85 85 Calm 30.69 1039 10 16 0.00 0.00
8:55 am 08:55 Sunny 12 -11.3 8 -13.4 84 84 WNW 3 6 30.69 1039 10 16 0.00 0.00
9:15 am 09:15 Sunny 13 -10.5 9 -12.6 84 84 WNW 7 11 30.68 1039 10 16 0.00 0.00
9:35 am 09:35 Sunny 15 -9.6 10 -12 83 83 WNW 7 11 30.67 1039 10 16 0.00 0.00
9:55 am 09:55 Sunny 16 -9 11 -11.6 81 81 NW 7 11 30.66 1038 10 16 0.00 0.00
10:15 am 10:15 Sunny 17 -8.3 12 -11 81 81 WNW 5 7 30.65 1038 10 16 0.00 0.00
10:35 am 10:35 Sunny 18 -7.7 13 -10.6 80 80 Calm 30.64 1038 10 16 0.00 0.00
10:55 am 10:55 Sunny 20 -6.8 14 -10 78 78 Calm 30.62 1037 10 16 0.00 0.00
11:15 am 11:15 Sunny 22 -5.5 16 -9.1 76 76 Calm 30.60 1036 10 16 0.00 0.00
11:35 am 11:35 Sunny 24 -4.2 17 -8.2 74 74 Calm 30.58 1036 10 16 0.00 0.00
11:55 am 11:55 Sunny 27 -3 19 -7 74 74 Calm 30.57 1035 10 16 0.00 0.00
12:15 pm 12:15 Sunny 29 -1.8 20 -6.5 70 70 Calm 30.55 1034 10 16 0.00 0.00
12:35 pm 12:35 Sunny 32 0 20 -6.4 62 62 Calm 30.51 1033 10 16 0.00 0.00
12:55 pm 12:55 Sunny 34 1 21 -6.3 58 58 WSW 6 9 30.50 1033 10 16 0.00 0.00
1:15 pm 13:15 Sunny 34 1.3 21 -5.9 59 59 SW 7 11 30.50 1033 10 16 0.00 0.00
1:35 pm 13:35 Sunny 35 1.5 21 -5.9 58 58 WSW 8 13 30.48 1032 10 16 0.00 0.00
1:55 pm 13:55 Sunny 35 1.5 22 -5.3 60 60 WSW 8 13 30.47 1032 10 16 0.00 0.00
2:15 pm 14:15 Sunny 36 2.2 22 -5.7 56 56 SSW 12 19 30.45 1031 10 16 0.00 0.00
2:35 pm 14:35 Sunny 37 2.6 22 -5.3 56 56 SW 13 20 30.44 1031 10 16 0.00 0.00
2:55 pm 14:55 Sunny 37 2.7 21 -5.9 53 53 SW 12 19 30.44 1031 10 16 0.00 0.00
3:15 pm 15:15 Sunny 37 2.7 20 -6.5 51 51 SW 14 22 30.43 1031 10 16 0.00 0.00
3:35 pm 15:35 Sunny 37 2.7 19 -7.3 48 48 SW 12 19 30.42 1030 10 16 0.00 0.00
3:55 pm 15:55 Sunny 37 3 20 -6.6 49 49 SSW 12 19 30.41 1030 10 16 0.00 0.00
4:15 pm 16:15 Sunny 37 2.6 22 -5.6 55 55 SW 10 17 30.41 1030 10 16 0.00 0.00
4:35 pm 16:35 Sunny 37 2.7 23 -5.1 56 56 SSW 9 15 30.41 1030 10 16 0.00 0.00
4:55 pm 16:55 Sunny 37 2.8 24 -4.7 58 58 SSW 7 11 30.41 1030 10 16 0.00 0.00
5:15 pm 17:15 Sunny 36 2 24 -4.3 63 63 SW 7 11 30.41 1030 10 16 0.00 0.00
5:35 pm 17:35 Sunny 36 2 24 -4.5 62 62 SSW 6 9 30.40 1029 10 16 0.00 0.00
5:55 pm 17:55 Sunny 33 0.6 24 -4.7 68 68 S 7 11 30.40 1030 10 16 0.00 0.00
6:15 pm 18:15 Clear 32 0.2 21 -5.9 63 63 SSW 5 7 30.41 1030 10 16 0.00 0.00
6:35 pm 18:35 Clear 31 -0.4 21 -6 66 66 SSW 6 9 30.41 1030 10 16 0.00 0.00
6:55 pm 18:55 Clear 30 -1.1 21 -6 69 69 S 8 13 30.42 1030 10 16 0.00 0.00
7:15 pm 19:15 Clear 28 -2.2 21 -6.3 73 73 S 9 15 30.43 1030 10 16 0.00 0.00
7:35 pm 19:35 Clear 29 -1.5 21 -6 71 71 S 10 17 30.41 1030 10 16 0.00 0.00
7:55 pm 19:55 Clear 29 -1.7 21 -6.2 71 71 S 10 17 30.42 1030 10 16 0.00 0.00
8:15 pm 20:15 Clear 29 -1.4 20 -6.5 68 68 S 10 17 30.40 1030 10 16 0.00 0.00
8:35 pm 20:35 Clear 29 -1.7 20 -6.8 68 68 S 9 15 30.40 1030 10 16 0.00 0.00
8:55 pm 20:55 Clear 27 -2.6 19 -7 72 72 S 9 15 30.40 1030 10 16 0.00 0.00
9:15 pm 21:15 Clear 27 -2.6 19 -7.5 69 69 S 10 17 30.40 1030 10 16 0.00 0.00
9:35 pm 21:35 Clear 27 -2.7 18 -7.6 69 69 S 9 15 30.41 1030 10 16 0.00 0.00
9:55 pm 21:55 Clear 26 -3.5 18 -8 71 71 S 7 11 30.41 1030 10 16 0.00 0.00
10:15 pm 22:15 Clear 26 -3.1 18 -8 69 69 S 5 7 30.41 1030 10 16 0.00 0.00
10:35 pm 22:35 Clear 27 -2.7 18 -8 67 67 Calm 30.41 1030 10 16 0.00 0.00
10:55 pm 22:55 Clear 27 -2.7 17 -8.2 66 66 SSW 3 6 30.41 1030 10 16 0.00 0.00
11:15 pm 23:15 Clear 27 -2.7 16 -9 62 62 SSW 8 13 30.41 1030 10 16 0.00 0.00
11:35 pm 23:35 Clear 30 -1 17 -8.6 56 56 SSW 9 15 30.38 1029 10 16 0.00 0.00
11:55 pm 23:55 Clear 29 -1.5 17 -8.6 58 58 SSW 9 15 30.38 1029 10 16 0.00 0.00

Powered by AerisWeather